Location: Bailleul
(50.3375°N, 2.8513°E)
Time: 08:18:44
(UTC+00:00)

Cosmos 1346 Rocket - Pass Details

Date: 16 June 2021
Orbit: 526 x 551 km, 81.2° (Epoch: 26 July)

Event Time Altitude Azimuth Distance (km) Brightness Sun altitude
Exits shadow 22:18:37 23° 155° (SSE) 1,185 3.9 -13.6°
Maximum altitude 22:20:42 43° 95° (E) 773 3.3 -13.7°
Drops below altitude 10° 22:24:32 10° 24° (NNE) 1,833 6.2 -13.9°
Sets 22:26:47 0° 18° (NNE) 2,735 7.3 -14.0°
